Zurück zum Katalog

STARLINK-38095

AktivKommunikationSSO
NORAD 100179·PAYLOAD·🇺🇸 United States

Gestartet Aug 1, 2026 von Vandenberg Space Force Base

Loading…

Nächste Überflüge (nächste 24 Stunden)

TLE

AktuellSource: Space-Track

Epoche: Sep 14, 2026, 08:02 UTC

1 A0179U 26175A   26257.33537387  .00142492  00000-0  93993-3 0  9997
2 A0179  97.2830  99.4333 0001039 166.9526 193.1766 15.75200477  8208

Verfolge STARLINK-38095 in Echtzeit mit AllMySat

Download on the App Store